Date String (YYYY-MM-DD hh:mm:ss) UTC,Instrument flags,Ambient pressure (hPa),Sample flow (lpm),Bypass flow (lpm),Sample temperature (°C),Ambient temperature (°C),ASC tube jacket temperature (°C),LED temperature (°C),Box temperature (°C),Sample RH (%),Span deviation,Mass concentration (μg/m³),Mass concentration (μg/m³),Mass concentration (μg/m³)
DateTimeUTC,F1_M11,P_M11,Q1_M11,Q2_M11,T1_M11,T2_M11,T3_M11,T4_M11,T5_M11,U1_M11,ZSPAN_M11,X2_M11,X0_M11,X1_M11
2021-12-03 09:00:00,,0825.6,5.00,0.00,30.0,29.0,00.0,39.0,31.7,07.9,0000.0,0000.51,0002.98,0000.33
2021-12-03 09:01:00,,0825.6,5.01,0.00,30.0,29.0,00.0,39.0,31.7,07.9,0000.0,0000.48,0002.91,0000.32
2021-12-03 09:02:00,,0825.6,5.00,0.00,29.9,29.0,00.0,39.0,31.6,07.9,0000.0,0000.48,0002.92,0000.32
2021-12-03 09:03:00,,0825.7,4.99,0.00,29.9,29.0,00.0,39.0,31.6,07.9,0000.0,0000.51,0003.01,0000.32
2021-12-03 09:04:00,,0825.7,5.00,0.00,29.9,29.0,00.0,38.9,31.6,07.9,0000.0,0000.53,0002.58,0000.32
2021-12-03 09:05:00,,0825.7,5.00,0.00,29.9,28.9,00.0,38.9,31.6,08.0,0000.0,0000.54,0002.65,0000.32
2021-12-03 09:06:00,,0825.7,5.01,0.00,29.9,28.9,00.0,38.9,31.5,08.0,0000.0,0000.57,0002.69,0000.33
2021-12-03 09:07:00,,0825.7,5.01,0.00,29.8,28.9,00.0,38.9,31.5,08.1,0000.0,0000.61,0002.78,0000.35
2021-12-03 09:08:00,,0825.7,5.00,0.00,29.8,28.8,00.0,38.9,31.4,08.2,0000.0,0000.65,0002.51,0000.36
2021-12-03 09:09:00,,0825.7,5.01,0.00,29.8,28.8,00.0,38.9,31.4,08.2,0000.0,0000.70,0002.46,0000.38
2021-12-03 09:10:00,,0825.8,4.98,0.00,29.8,28.8,00.0,38.9,31.4,08.2,0000.0,0000.77,0003.35,0000.39
2021-12-03 09:11:00,,0826.1,5.01,0.00,29.8,28.8,00.0,38.9,31.4,08.3,0000.0,0000.83,0003.81,0000.41
2021-12-03 09:12:00,,0825.9,4.99,0.00,29.8,28.8,00.0,38.9,31.5,08.4,0000.0,0000.93,0004.73,0000.44
2021-12-03 09:13:00,,0825.8,4.99,0.00,29.8,28.8,00.0,38.8,31.4,08.4,0000.0,0001.09,0005.66,0000.48
2021-12-03 09:14:00,,0825.9,5.00,0.00,29.8,28.8,00.0,38.8,31.5,08.3,0000.0,0001.18,0006.83,0000.52
2021-12-03 09:15:00,,0825.9,5.00,0.00,29.8,28.8,00.0,38.8,31.5,08.3,0000.0,0001.30,0007.26,0000.56
2021-12-03 09:16:00,,0825.9,5.01,0.00,29.8,28.8,00.0,38.8,31.5,08.4,0000.0,0001.42,0007.57,0000.61
2021-12-03 09:17:00,,0826.0,5.01,0.00,29.7,28.8,00.0,38.8,31.4,08.4,0000.0,0001.54,0007.79,0000.65
2021-12-03 09:18:00,,0825.9,5.00,0.00,29.7,28.8,00.0,38.8,31.4,08.4,0000.0,0001.65,0007.91,0000.69
2021-12-03 09:19:00,,0826.0,5.00,0.00,29.7,28.8,00.0,38.8,31.4,08.4,0000.0,0001.74,0007.88,0000.73
2021-12-03 09:20:00,,0826.0,4.99,0.00,29.7,28.8,00.0,38.8,31.4,08.4,0000.0,0001.79,0007.69,0000.76
2021-12-03 09:21:00,,0826.0,5.01,0.00,29.7,28.8,00.0,38.8,31.4,08.4,0000.0,0001.83,0007.29,0000.80
2021-12-03 09:22:00,,0826.2,5.00,0.00,29.8,28.8,00.0,38.8,31.4,08.3,0000.0,0001.91,0007.72,0000.83
2021-12-03 09:23:00,,0826.2,5.00,0.00,29.7,28.8,00.0,38.8,31.4,08.3,0000.0,0001.98,0007.68,0000.84
2021-12-03 09:24:00,,0826.2,5.01,0.00,29.7,28.8,00.0,38.8,31.4,08.3,0000.0,0001.95,0007.39,0000.85
2021-12-03 09:25:00,,0826.2,4.99,0.00,29.7,28.8,00.0,38.8,31.4,08.3,0000.0,0001.96,0007.36,0000.85
2021-12-03 09:26:00,,0826.2,5.00,0.00,29.7,28.8,00.0,38.7,31.5,08.3,0000.0,0001.96,0007.90,0000.85
2021-12-03 09:27:00,,0826.2,5.01,0.00,29.7,28.8,00.0,38.7,31.5,08.2,0000.0,0002.03,0008.72,0000.84
2021-12-03 09:28:00,,0826.2,4.99,0.00,29.7,28.8,00.0,38.7,31.5,08.2,0000.0,0002.05,0009.18,0000.82
2021-12-03 09:29:00,,0826.2,5.00,0.00,29.7,28.8,00.0,38.7,31.4,08.2,0000.0,0002.02,0009.19,0000.80
2021-12-03 09:30:00,,0826.2,4.99,0.00,29.7,28.8,00.0,38.7,31.4,08.2,0000.0,0001.95,0009.15,0000.77
2021-12-03 09:31:00,,0826.1,5.00,0.00,29.7,28.7,00.0,38.7,31.4,08.1,0000.0,0001.90,0009.28,0000.77
2021-12-03 09:32:00,,0826.1,5.00,0.00,29.7,28.7,00.0,38.7,31.4,08.1,0000.0,0001.88,0009.57,0000.75
2021-12-03 09:33:00,,0826.2,5.00,0.00,29.7,28.7,00.0,38.7,31.4,08.1,0000.0,0001.82,0009.26,0000.72
2021-12-03 09:34:00,,0826.2,4.99,0.00,29.7,28.7,00.0,38.7,31.4,08.1,0000.0,0001.74,0008.91,0000.70
2021-12-03 09:35:00,,0826.2,5.01,0.00,29.7,28.7,00.0,38.7,31.4,08.1,0000.0,0001.69,0009.28,0000.69
2021-12-03 09:36:00,,0826.2,4.98,0.00,29.7,28.7,00.0,38.7,31.4,08.1,0000.0,0001.61,0009.63,0000.67
2021-12-03 09:37:00,,0826.4,4.99,0.00,29.7,28.7,00.0,38.7,31.4,08.1,0000.0,0001.55,0008.90,0000.65
2021-12-03 09:38:00,,0826.3,5.02,0.00,29.7,28.7,00.0,38.7,31.4,08.1,0000.0,0001.41,0007.78,0000.63
2021-12-03 09:39:00,,0826.4,4.99,0.00,29.7,28.7,00.0,38.7,31.4,08.1,0000.0,0001.33,0006.85,0000.63
2021-12-03 09:40:00,,0826.4,5.00,0.00,29.7,28.7,00.0,38.7,31.4,08.1,0000.0,0001.29,0006.64,0000.64
2021-12-03 09:41:00,,0826.4,5.02,0.00,29.7,28.7,00.0,38.7,31.4,08.1,0000.0,0001.30,0006.76,0000.66
2021-12-03 09:42:00,,0826.4,4.98,0.00,29.6,28.7,00.0,38.7,31.4,08.1,0000.0,0001.27,0006.41,0000.67
2021-12-03 09:43:00,,0826.5,5.01,0.00,29.6,28.7,00.0,38.7,31.4,08.1,0000.0,0001.28,0005.78,0000.70
2021-12-03 09:44:00,,0826.4,4.99,0.00,29.6,28.7,00.0,38.7,31.3,08.1,0000.0,0001.28,0005.40,0000.74
2021-12-03 09:45:00,,0826.4,5.01,0.00,29.6,28.6,00.0,38.7,31.3,08.1,0000.0,0001.31,0005.35,0000.79
2021-12-03 09:46:00,,0826.4,4.99,0.00,29.6,28.6,00.0,38.6,31.3,08.1,0000.0,0001.39,0004.93,0000.87
2021-12-03 09:47:00,,0826.5,5.00,0.00,29.6,28.6,00.0,38.6,31.3,08.2,0000.0,0001.55,0004.08,0000.97
2021-12-03 09:48:00,,0826.5,5.01,0.00,29.6,28.6,00.0,38.6,31.3,08.2,0000.0,0001.73,0004.28,0001.08
2021-12-03 09:49:00,,0826.5,5.00,0.00,29.6,28.6,00.0,38.6,31.3,08.2,0000.0,0001.90,0004.80,0001.19
2021-12-03 09:50:00,,0826.5,5.00,0.00,29.6,28.6,00.0,38.6,31.3,08.2,0000.0,0002.09,0005.62,0001.30
2021-12-03 09:51:00,,0826.5,5.01,0.00,29.6,28.6,00.0,38.6,31.2,08.3,0000.0,0002.24,0007.50,0001.44
2021-12-03 09:52:00,,0826.5,4.98,0.00,29.6,28.6,00.0,38.6,31.2,08.2,0000.0,0002.39,0007.63,0001.57
2021-12-03 09:53:00,,0826.5,5.00,0.00,29.6,28.6,00.0,38.6,31.2,08.3,0000.0,0002.59,0007.92,0001.71
2021-12-03 09:54:00,,0826.5,5.00,0.00,29.5,28.6,00.0,38.6,31.2,08.2,0000.0,0002.70,0008.68,0001.79
2021-12-03 09:55:00,,0826.5,5.01,0.00,29.5,28.5,00.0,38.6,31.1,08.3,0000.0,0002.82,0009.48,0001.85
2021-12-03 09:56:00,,0826.5,5.00,0.00,29.5,28.5,00.0,38.6,31.1,08.3,0000.0,0002.98,0010.20,0001.92
2021-12-03 09:57:00,,0826.5,5.00,0.00,29.5,28.5,00.0,38.5,31.1,08.3,0000.0,0003.04,0010.38,0001.96
2021-12-03 09:58:00,,0826.5,5.01,0.00,29.5,28.5,00.0,38.5,31.1,08.3,0000.0,0003.01,0010.80,0001.95
2021-12-03 09:59:00,,0826.5,4.99,0.00,29.5,28.5,00.0,38.5,31.1,08.3,0000.0,0003.04,0011.31,0001.95
